Location: Central Falls
(41.8900°N, 71.3929°W)
Time: 11:45:31
(UTC+00:00)

A-11 Canister half - Pass Details

Date: 07 December 2023
Orbit: 1526 x 1682 km, 47.3° (Epoch: 20 February)

Event Time Altitude Azimuth Distance (km) Brightness Sun altitude
Rises 23:15:45 0° 236° (SW) 4,909 12.8 -21.9°
Reaches altitude 10° 23:18:54 10° 236° (SW) 3,931 12.1 -22.4°
Maximum altitude 23:29:03 82° 150° (SSE) 1,697 9.1 -24.3°
Enters shadow 23:33:32 40° 68° (ENE) 2,318 9.4 -25.1°
Drops below altitude 10° 23:39:10 10° 65° (ENE) 3,916 - -26.2°
Sets 23:42:17 0° 65° (ENE) 4,890 - -26.7°
